Location: Unnamed Road
(35.9029°N, 51.9749°E)
Time: 01:54:10
(UTC+04:30)

Envisat - Visible Passes

Search period start: 10 April 2020 00:00
Search period end: 20 April 2020 00:00
Orbit: 764 x 766 km, 98.1° (Epoch: 09 April)

Date Brightness Start Highest point End Pass type
(mag) Time Alt. Az. Time Alt. Az. Time Alt. Az.
10 Apr 5.9 19:55:42 10° SW 19:59:05 18° W 20:02:30 10° NW visible
15 Apr 6.2 20:11:20 10° WSW 20:13:23 12° W 20:15:26 10° WNW visible
18 Apr 5.9 19:58:51 10° SW 20:01:58 16° W 20:05:05 10° NW visible
